When you browse on this site, cookies collect data to enhance your experience and personalize the content and advertising you see.
Visit our Privacy Policy to learn more. By continuing to use the site, you agree to this use of cookies and data.
  • In United Kingdom
  • List of Countries
  • For 7 days
  • Water Temperature
  • Weather Map
  • Weather Widgets
  • user-avatar
    Login

    Hourly Weather Hohen Neuendorf

    Today, 19 September, Thursday

    Time Temperature Precipitation Wind Pressure Humidity
    00:00 +6°C° 0 mm 4 mps 762 mmHg 81%
    01:00 +7°C° 0 mm 3 mps 763 mmHg 85%
    02:00 +7°C° 0 mm 3 mps 763 mmHg 87%
    03:00 +5°C° 0 mm 3 mps 763 mmHg 90%
    04:00 +5°C° 0 mm 3 mps 763 mmHg 92%
    05:00 +5°C° 0 mm 3 mps 763 mmHg 92%
    06:00 +7°C° 0 mm 3 mps 763 mmHg 91%
    07:00 +7°C° 0 mm 3 mps 764 mmHg 90%
    08:00 +9°C° 0 mm 3 mps 764 mmHg 82%
    09:00 +11°C° 0 mm 3 mps 764 mmHg 74%
    10:00 +13°C° 0 mm 3 mps 765 mmHg 66%
    11:00 +14°C° 0 mm 3 mps 765 mmHg 60%
    12:00 +15°C° 0 mm 4 mps 765 mmHg 54%
    13:00 +17°C° 0 mm 4 mps 765 mmHg 47%
    14:00 +15°C° 0 mm 4 mps 765 mmHg 49%
    15:00 +15°C° 0 mm 4 mps 765 mmHg 51%
    16:00 +15°C° 0 mm 4 mps 765 mmHg 52%
    17:00 +13°C° 0 mm 4 mps 765 mmHg 59%
    18:00 +12°C° 0 mm 3 mps 765 mmHg 67%
    19:00 +10°C° 0 mm 2 mps 765 mmHg 74%
    20:00 +9°C° 0 mm 2 mps 765 mmHg 76%
    21:00 +9°C° 0 mm 2 mps 766 mmHg 78%
    22:00 +8°C° 0 mm 2 mps 766 mmHg 80%
    23:00 +8°C° 0 mm 2 mps 766 mmHg 81%

    Tomorrow, 20 September, Friday

    Time Temperature Precipitation Wind Pressure Humidity
    00:00 +8°C° 0 mm 2 mps 766 mmHg 82%
    01:00 +7°C° 0 mm 2 mps 766 mmHg 83%
    02:00 +7°C° 0 mm 2 mps 766 mmHg 86%
    03:00 +7°C° 0 mm 2 mps 765 mmHg 89%
    04:00 +7°C° 0 mm 2 mps 765 mmHg 92%
    05:00 +7°C° 0 mm 2 mps 765 mmHg 91%
    06:00 +7°C° 0 mm 2 mps 765 mmHg 90%
    07:00 +7°C° 0 mm 2 mps 765 mmHg 89%
    08:00 +9°C° 0 mm 2 mps 765 mmHg 81%
    09:00 +12°C° 0 mm 2 mps 766 mmHg 72%
    10:00 +14°C° 0 mm 2 mps 766 mmHg 64%
    11:00 +13°C° 0 mm 3 mps 766 mmHg 62%
    12:00 +14°C° 0 mm 3 mps 765 mmHg 60%
    13:00 +14°C° 0 mm 3 mps 765 mmHg 58%
    14:00 +14°C° 0 mm 3 mps 765 mmHg 60%
    15:00 +15°C° 0 mm 2 mps 764 mmHg 62%
    16:00 +15°C° 0 mm 2 mps 764 mmHg 64%
    17:00 +14°C° 0 mm 2 mps 764 mmHg 70%
    18:00 +13°C° 0 mm 1 mps 764 mmHg 76%
    19:00 +12°C° 0 mm 1 mps 764 mmHg 82%
    20:00 +12°C° 0 mm 1 mps 764 mmHg 83%
    21:00 +11°C° 0 mm 1 mps 764 mmHg 84%
    22:00 +11°C° 0 mm 1 mps 764 mmHg 85%
    23:00 +10°C° 0 mm 2 mps 764 mmHg 87%

    Day after tomorrow, 21 September, Saturday

    Time Temperature Precipitation Wind Pressure Humidity
    00:00 +9°C° 0 mm 2 mps 763 mmHg 88%
    01:00 +9°C° 0 mm 2 mps 763 mmHg 89%
    02:00 +9°C° 0 mm 2 mps 763 mmHg 90%
    03:00 +9°C° 0 mm 2 mps 763 mmHg 90%
    04:00 +9°C° 0 mm 1 mps 763 mmHg 90%
    05:00 +10°C° 0 mm 1 mps 762 mmHg 89%
    06:00 +10°C° 0 mm 1 mps 762 mmHg 87%
    07:00 +10°C° 0 mm 1 mps 762 mmHg 85%
    08:00 +12°C° 0 mm 1 mps 762 mmHg 77%
    09:00 +14°C° 0 mm 2 mps 762 mmHg 68%
    10:00 +16°C° 0 mm 2 mps 762 mmHg 60%
    11:00 +18°C° 0 mm 2 mps 762 mmHg 56%
    12:00 +19°C° 0 mm 2 mps 761 mmHg 52%
    13:00 +20°C° 0 mm 2 mps 761 mmHg 48%
    14:00 +21°C° 0 mm 1 mps 760 mmHg 47%
    15:00 +21°C° 0 mm 1 mps 760 mmHg 46%
    16:00 +21°C° 0 mm 1 mps 759 mmHg 46%
    17:00 +19°C° 0 mm 2 mps 759 mmHg 51%
    18:00 +17°C° 0 mm 2 mps 759 mmHg 56%
    19:00 +15°C° 0 mm 2 mps 759 mmHg 61%
    20:00 +14°C° 0 mm 2 mps 759 mmHg 62%
    21:00 +14°C° 0 mm 2 mps 759 mmHg 63%
    22:00 +13°C° 0 mm 2 mps 759 mmHg 64%
    23:00 +13°C° 0 mm 2 mps 758 mmHg 65%

    22 September, Sunday

    Time Temperature Precipitation Wind Pressure Humidity
    00:00 +13°C° 0 mm 2 mps 758 mmHg 66%
    01:00 +12°C° 0 mm 2 mps 758 mmHg 67%
    02:00 +12°C° 0 mm 2 mps 757 mmHg 68%
    03:00 +11°C° 0 mm 3 mps 757 mmHg 69%
    04:00 +10°C° 0 mm 3 mps 757 mmHg 69%
    05:00 +11°C° 0 mm 3 mps 756 mmHg 67%
    06:00 +11°C° 0 mm 3 mps 756 mmHg 66%
    07:00 +11°C° 0 mm 3 mps 756 mmHg 64%
    08:00 +13°C° 0 mm 4 mps 756 mmHg 57%
    09:00 +15°C° 0 mm 4 mps 756 mmHg 50%
    10:00 +19°C° 0 mm 4 mps 756 mmHg 44%
    11:00 +20°C° 0 mm 5 mps 755 mmHg 41%
    12:00 +21°C° 0 mm 5 mps 755 mmHg 39%
    13:00 +22°C° 0 mm 5 mps 754 mmHg 36%
    14:00 +21°C° 0 mm 4 mps 754 mmHg 38%
    15:00 +21°C° 0 mm 4 mps 753 mmHg 40%
    16:00 +21°C° 0 mm 3 mps 753 mmHg 42%
    17:00 +19°C° 0 mm 3 mps 753 mmHg 46%
    18:00 +18°C° 0 mm 3 mps 752 mmHg 49%
    19:00 +17°C° 0 mm 2 mps 752 mmHg 53%
    20:00 +16°C° 0 mm 2 mps 752 mmHg 54%
    21:00 +16°C° 0 mm 2 mps 752 mmHg 56%
    22:00 +15°C° 0 mm 2 mps 752 mmHg 58%
    23:00 +15°C° 0 mm 2 mps 752 mmHg 59%

    23 September, Monday

    Time Temperature Precipitation Wind Pressure Humidity
    00:00 +15°C° 0 mm 2 mps 752 mmHg 60%
    01:00 +15°C° 0 mm 2 mps 751 mmHg 62%
    02:00 +14°C° 0 mm 2 mps 751 mmHg 63%
    03:00 +14°C° 0 mm 2 mps 751 mmHg 65%
    04:00 +14°C° 0 mm 2 mps 750 mmHg 66%
    05:00 +14°C° 0 mm 2 mps 750 mmHg 67%
    06:00 +14°C° 0 mm 2 mps 750 mmHg 67%
    07:00 +14°C° 0 mm 1 mps 750 mmHg 67%
    08:00 +15°C° 0 mm 1 mps 750 mmHg 68%
    09:00 +15°C° 0 mm 1 mps 750 mmHg 70%
    10:00 +16°C° 0 mm 2 mps 751 mmHg 71%
    11:00 +16°C° 0.5 mm 2 mps 751 mmHg 77%
    12:00 +16°C° 0.5 mm 2 mps 751 mmHg 83%
    13:00 +16°C° 0.5 mm 2 mps 751 mmHg 89%
    14:00 +16°C° 0.4 mm 3 mps 751 mmHg 90%
    15:00 +14°C° 0.4 mm 4 mps 751 mmHg 91%
    16:00 +14°C° 0.4 mm 4 mps 751 mmHg 92%
    17:00 +14°C° 0.8 mm 4 mps 751 mmHg 93%
    18:00 +14°C° 0.8 mm 5 mps 751 mmHg 93%
    19:00 +14°C° 0.8 mm 5 mps 751 mmHg 93%
    20:00 +14°C° 1 mm 5 mps 751 mmHg 94%
    21:00 +14°C° 1 mm 5 mps 751 mmHg 94%
    22:00 +14°C° 1 mm 5 mps 751 mmHg 94%
    23:00 +14°C° 1.1 mm 5 mps 752 mmHg 94%

    24 September, Tuesday

    Time Temperature Precipitation Wind Pressure Humidity
    00:00 +14°C° 1.1 mm 5 mps 752 mmHg 94%
    01:00 +14°C° 1.1 mm 4 mps 752 mmHg 94%
    02:00 +14°C° 0.7 mm 4 mps 752 mmHg 94%
    03:00 +14°C° 0.7 mm 4 mps 752 mmHg 94%
    04:00 +14°C° 0.7 mm 4 mps 752 mmHg 94%
    05:00 +13°C° 0.5 mm 3 mps 752 mmHg 94%
    06:00 +13°C° 0.5 mm 3 mps 752 mmHg 94%
    07:00 +13°C° 0.5 mm 3 mps 753 mmHg 95%
    08:00 +13°C° 0.1 mm 3 mps 753 mmHg 93%
    09:00 +14°C° 0.1 mm 2 mps 753 mmHg 91%
    10:00 +15°C° 0.1 mm 2 mps 754 mmHg 89%
    11:00 +15°C° 0.1 mm 2 mps 754 mmHg 88%
    12:00 +15°C° 0.1 mm 2 mps 754 mmHg 88%
    13:00 +15°C° 0.1 mm 2 mps 754 mmHg 87%
    14:00 +15°C° 0 mm 2 mps 754 mmHg 88%
    15:00 +15°C° 0 mm 1 mps 754 mmHg 89%
    16:00 +15°C° 0 mm 1 mps 754 mmHg 90%
    17:00 +14°C° 0.1 mm 1 mps 754 mmHg 91%
    18:00 +14°C° 0.1 mm 1 mps 754 mmHg 92%
    19:00 +13°C° 0.1 mm 0 mps 754 mmHg 92%
    20:00 +13°C° 0 mm 1 mps 753 mmHg 93%
    21:00 +13°C° 0 mm 1 mps 753 mmHg 94%
    22:00 +13°C° 0 mm 1 mps 753 mmHg 94%
    23:00 +13°C° 0 mm 1 mps 753 mmHg 94%
    Show more